Content
SEND FEEDBACK

Daily
Averages
Monthly
Summary
Canada

SUDBURY, ONTARIO


Home > North America > Canada > Ontario
Elevation: 1140 feet     Latitude: 46 37N     Longitude: 080 48W

WEATHER
 
SELECT A DAY
Number of Records: 183,421;   Date Range: 1/1/95 - 7/11/14
 
SHARE

PRINT THIS DATA

[ ← Previous Day ]
WEATHER ALMANAC - FEBRUARY 1, 2013
[ Next Day → ]
[ °C ]   °F
Weather ElementAverageHighLow
Temperature-4.3 °F1.4 °F (10:00 pm)-11.2 °F (7:00 am)
Dewpoint-12.6 °F (8:42 am)-20.2 °F (7:00 am)
Humidity62.9 %72 % (8:00 pm)45 % (1:00 pm)
Barometer27.94 in30.11 in (7:00 pm) (7:00 pm)
Wind Speed8.6 mph13.8 mph (1:00 am)
Weather ElementAverage
Visibility15 mi
Wind DirectionW (274.8 °)

Weather ElementTotal
Precipitation---
Heating Degree Days69.9 (Base 65)
Averaged from 29 records on February 1, 2013
WEATHER CONDITIONS BREAKOUT
WIND DIRECTION BREAKOUT
WEATHER BY HOUR - FEBRUARY 1, 2013
[ °C ]   °F
Local TimeTemperatureDewpointHumidityBarometerVisibilityWind DirectionWind SpeedGust SpeedPrecipitationEventsConditions
1:00 AM-4.0 °F-13.0 °F50 %29.81 in7.0 miNNW (330°)11.5 mphSnowLight Snow
1:00 AM-4.0 °F-13.0 °F65 %29.81 in8.0 miNNW (330°)13.8 mphSnowLight Snow
2:00 AM-5.8 °F-13.0 °F71 %29.82 in8.0 miNW (320°)9.2 mphSnowLight Snow
3:00 AM-5.8 °F-14.8 °F65 %29.84 in10.0 miNNW (340°)10.4 mphSnowLight Snow
4:00 AM-7.6 °F-16.6 °F65 %29.86 in10.0 miNNW (340°)9.2 mphSnowLight Snow
5:00 AM-9.4 °F-16.6 °F71 %29.89 in15.0 miNW (320°)9.2 mphSnowLight Snow
6:00 AM-9.4 °F-18.4 °F65 %29.92 in15.0 miNW (320°)8.1 mphSnowLight Snow
7:00 AM-11.2 °F-20.2 °F64 %29.95 in15.0 miNNW (330°)6.9 mphSnowLight Snow
7:00 AM-10.0 °F-19.0 °F47 %29.95 in15.0 miNNW (330°)6.9 mphSnowLight Snow
8:00 AM-11.2 °F-20.2 °F64 %29.98 in20.0 miNW (320°)9.2 mphMostly Cloudy
8:42 AM0.0 °F0.0 °F15.0 miNNW (330°)8.1 mph
9:00 AM-9.4 °F-20.2 °F59 %30.01 in12.0 miNW (320°)11.5 mphSnowLight Snow
10:00 AM-9.4 °F-18.4 °F65 %30.04 in12.0 miNNW (330°)11.5 mphSnowLight Snow
11:00 AM-7.6 °F-18.4 °F59 %30.06 in20.0 miNNW (330°)13.8 mphSnowLow Drifting Snow
12:00 PM-5.8 °F-16.6 °F60 %30.07 in20.0 miWest (270°)8.1 mphScattered Clouds
1:00 PM-4.0 °F-14.0 °F45 %30.06 in19.0 miNW (310°)5.8 mphPartly Cloudy
1:00 PM-4.0 °F-14.8 °F60 %30.06 in20.0 miNW (310°)5.8 mphMostly Cloudy
2:00 PM-2.2 °F-13.0 °F60 %30.07 in20.0 miWest (280°)9.2 mphMostly Cloudy
3:00 PM-0.4 °F-11.2 °F60 %30.08 in20.0 miWSW (250°)5.8 mphPartly Cloudy
4:00 PM-0.4 °F-11.2 °F60 %30.09 in20.0 miSW (230°)9.2 mphPartly Cloudy
5:00 PM-0.4 °F-9.4 °F66 %30.09 in20.0 miSW (230°)5.8 mphPartly Cloudy
6:00 PM-2.2 °F-9.4 °F71 %30.09 in15.0 miSouth (190°)8.1 mphMostly Cloudy
7:00 PM-0.4 °F-9.4 °F66 %30.11 in15.0 miSouth (190°)10.4 mphMostly Cloudy
7:00 PM-1.0 °F-9.0 °F53 %30.11 in15.0 miSouth (180°)8.1 mphMostly Cloudy
7:23 PM0.0 °F0.0 °F15.0 miSSW (200°)5.8 mph
8:00 PM-0.4 °F-7.6 °F72 %30.10 in15.0 miSSE (160°)5.8 mphSnowLight Snow
9:00 PM-0.4 °F-7.6 °F72 %30.10 in15.0 miSouth (190°)5.8 mphSnowLight Snow
10:00 PM1.4 °F-5.8 °F72 %30.09 in12.0 miSouth (190°)6.9 mphSnowLight Snow
11:00 PM1.4 °F-5.8 °F72 %30.09 in12.0 miSSW (200°)8.1 mphSnowLight Snow
Hourly data recorded from CYSB, located miles away from Sudbury, Ontario







STORIES FROM OUR PARTNERS